[[{"header":{"parameterUnit":"m.s-1","parameterCategory":1,"la1":30.2991,"la2":30.254,"lo1":-89.0895,"lo2":-89.0444,"dy":0.0017,"dx":0.0017,"nx":28,"ny":28,"refTime":"2025-11-20T09:00:00:Z","depth":0,"parameterNumber":2,"parameterNumberName":"U-component_of_WINDS"},"data":[0,0,0,0,0,0,0,0,0,0,0,0,0,0,0,0,0,0,0,0,0,0,0,0,0,0,0,0,0,0,0,0,0,0,0,0,0,0,0,0,0,0,0,0,0,0,0,0,0,0,0,0,0,0,0,0,0,0,-2.0221,-2.0222,0,-2.027,-2.0271,-2.0272,-2.0293,-2.0293,-2.0293,-2.0292,-2.0342,-2.0344,-2.0345,0,0,0,0,0,0,0,0,0,0,0,0,0,-2.0145,-2.0146,-2.0221,-2.0222,-2.0223,-2.027,-2.0271,-2.0272,-2.0293,-2.0293,-2.0293,-2.0292,-2.0342,-2.0343,-2.0345,0,0,0,0,0,0,0,0,0,0,0,0,0,-2.0185,-2.0147,-2.0221,-2.0239,-2.0241,-2.027,-2.0271,-2.0272,-2.0293,-2.0293,-2.0292,-2.0292,-2.0341,-2.0343,-2.0345,-2.0361,0,0,-2.0352,-2.0353,0,0,0,0,0,0,0,0,-2.0182,-2.0187,-2.0236,-2.0238,-2.024,-2.0275,-2.0262,-2.0302,-2.0293,-2.0273,-2.0292,-2.0292,-2.032,-2.0324,-2.0333,-2.0363,-2.0365,-2.0352,-2.0353,-2.0354,-2.0355,0,0,0,0,0,0,0,-2.018,-2.0185,-2.0241,-2.0236,-2.0239,-2.0244,-2.025,-2.027,-2.0297,-2.0275,-2.0276,-2.0282,-2.0321,-2.0331,-2.0335,-2.0366,-2.0352,-2.0354,-2.0355,-2.0356,-2.041,-2.0411,0,0,0,0,0,0,-2.0174,-2.0183,-2.0239,-2.0242,-2.021,-2.0246,-2.0252,-2.0264,-2.0296,-2.0301,-2.0282,-2.0283,-2.0328,-2.0332,-2.0336,-2.0356,-2.0354,-2.0356,-2.0357,-2.041,-2.041,-2.0411,0,0,0,0,0,0,-2.0172,-2.0179,-2.0237,-2.0213,-2.0221,-2.0247,-2.0261,-2.0265,-2.0275,-2.0302,-2.0307,-2.0287,-2.0328,-2.0334,-2.0354,-2.0358,-2.0357,-2.0359,-2.041,-2.041,-2.041,-2.0396,0,0,0,0,0,0,-2.017,-2.0178,-2.0184,-2.0213,-2.0222,-2.0255,-2.0261,-2.0266,-2.0279,-2.028,-2.0308,-2.0313,-2.0328,-2.0351,-2.0357,-2.0361,-2.0361,-2.041,-2.041,-2.041,-2.0397,-2.0396,-2.0396,0,0,0,0,0,-2.0167,-2.0179,-2.0185,-2.0191,-2.0231,-2.0255,-2.026,-2.0278,-2.0279,-2.0285,-2.0303,-2.0312,-2.0357,-2.0353,-2.0359,-2.0365,-2.041,-2.041,-2.041,-2.0397,-2.0396,-2.0396,0,0,0,0,0,0,-2.015,-2.0183,-2.019,-2.0211,-2.023,-2.0258,-2.0267,-2.0276,-2.0295,-2.0296,-2.0317,-2.0323,-2.0342,-2.0356,-2.0351,-2.0381,-2.0384,-2.0386,-2.0372,-2.0371,-2.0371,-2.0367,-2.0362,0,0,0,0,0,-2.0148,-2.0165,-2.0193,-2.0209,-2.0218,-2.0241,-2.0252,-2.0264,-2.0284,-2.0293,-2.0311,-2.0331,-2.0349,-2.0361,-2.038,-2.0399,-2.0405,-2.0405,-2.0405,-2.0405,-2.0406,-2.0417,-2.0417,-2.0412,-2.0412,-2.0412,0,0,-2.0145,-2.0165,-2.0175,-2.0206,-2.0222,-2.0239,-2.0247,-2.0265,-2.0278,-2.0295,-2.0316,-2.033,-2.0354,-2.0373,-2.0383,-2.0385,-2.0409,-2.0405,-2.0405,-2.0406,-2.0417,-2.0418,-2.0418,-2.0412,-2.0412,-2.0412,0,0,-2.0149,-2.0166,-2.0181,-2.0197,-2.0221,-2.0236,-2.0239,-2.0267,-2.0277,-2.0298,-2.0311,-2.0327,-2.0358,-2.0374,-2.0387,-2.0396,-2.0405,-2.0401,-2.0399,-2.0409,-2.0409,-2.041,-2.0413,-2.0414,-2.0402,-2.0402,-2.0402,0,-2.0142,-2.0168,-2.0187,-2.0204,-2.0217,-2.0233,-2.0248,-2.0263,-2.0292,-2.0301,-2.0303,-2.0343,-2.0359,-2.0383,-2.0385,-2.0395,-2.0399,-2.0398,-2.0408,-2.0409,-2.0409,-2.0412,-2.0414,-2.0401,-2.0401,-2.0402,-2.0402,0,-2.0159,-2.0177,-2.0186,-2.0213,-2.0228,-2.0243,-2.0264,-2.0276,-2.0287,-2.0301,-2.0323,-2.0343,-2.0366,-2.0373,-2.0383,-2.0398,-2.0399,-2.0404,-2.0407,-2.0409,-2.0412,-2.0414,-2.0401,-2.0401,-2.0401,-2.0401,0,0,-2.0153,-2.019,-2.0193,-2.0206,-2.0234,-2.0248,-2.0264,-2.0287,-2.0297,-2.0316,-2.033,-2.0357,-2.0362,-2.0376,-2.0388,-2.0397,-2.0403,-2.0401,-2.0402,-2.0401,-2.042,-2.0416,-2.0417,-2.0409,-2.0409,-2.0409,-2.0418,0,-2.016,-2.019,-2.0207,-2.023,-2.0247,-2.0263,-2.0277,-2.0295,-2.0309,-2.0326,-2.0341,-2.0359,-2.0365,-2.0373,-2.0383,-2.04,-2.0407,-2.0399,-2.0422,-2.0423,-2.0416,-2.0419,-2.0414,-2.0421,-2.0419,-2.042,-2.042,0,-2.0173,-2.0192,-2.0216,-2.0242,-2.0249,-2.0262,-2.0284,-2.0299,-2.032,-2.033,-2.0345,-2.0357,-2.0375,-2.0377,-2.0402,-2.0396,-2.0407,-2.0416,-2.0417,-2.042,-2.0421,-2.0421,-2.0424,-2.0425,-2.0422,-2.0422,-2.0422,0,-2.0165,-2.0197,-2.0216,-2.0226,-2.0257,-2.0265,-2.0278,-2.0299,-2.0312,-2.0331,-2.0339,-2.036,-2.0371,-2.0387,-2.0405,-2.0404,-2.0427,-2.0431,-2.0436,-2.0435,-2.044,-2.0439,-2.0444,-2.0447,-2.0447,-2.0447,-2.0447,0,-2.0172,-2.0186,-2.0213,-2.0225,-2.0241,-2.026,-2.0276,-2.0291,-2.0309,-2.0324,-2.0339,-2.0352,-2.0374,-2.039,-2.0404,-2.0422,-2.0427,-2.0436,-2.0439,-2.0434,-2.0433,-2.0441,-2.0441,-2.0447,-2.0447,-2.0447,-2.0447,0,-2.0166,-2.0185,-2.0207,-2.0234,-2.0241,-2.0252,-2.0275,-2.0287,-2.0301,-2.0319,-2.0325,-2.0348,-2.0368,-2.0387,-2.0413,-2.0422,-2.044,-2.0445,-2.0433,-2.0435,-2.0439,-2.0438,-2.0449,-2.0452,-2.0452,-2.0452,-2.0452,0,-2.0169,-2.018,-2.0209,-2.0219,-2.0232,-2.0249,-2.0262,-2.0281,-2.0293,-2.0318,-2.0327,-2.0348,-2.0365,-2.0396,-2.0415,-2.0435,-2.0441,-2.0443,-2.0444,-2.0439,-2.0441,-2.044,-2.0441,-2.0443,-2.0442,-2.0442,-2.0442,0,-2.0172,-2.018,-2.0198,-2.0219,-2.0233,-2.025,-2.0268,-2.0276,-2.0299,-2.0312,-2.0332,-2.0346,-2.0373,-2.0393,-2.0416,-2.0429,-2.0439,-2.0442,-2.0444,-2.0439,-2.0432,-2.0436,-2.0432,-2.0442,-2.0442,-2.0442,-2.0442,-2.0442,-2.0171,-2.0181,-2.0203,-2.0222,-2.0237,-2.0253,-2.0265,-2.0281,-2.0299,-2.0322,-2.0332,-2.0353,-2.0374,-2.0405,-2.0418,-2.0434,-2.0437,-2.044,-2.0441,-2.0441,-2.044,-2.0429,-2.0438,-2.0438,-2.0438,-2.0439,-2.0439,0,-2.0174,-2.0188,-2.0205,-2.023,-2.0245,-2.0253,-2.0273,-2.0285,-2.0302,-2.0321,-2.0338,-2.0361,-2.0381,-2.0402,-2.0422,-2.0431,-2.0437,-2.0436,-2.0436,-2.0439,-2.0437,-2.0433,-2.0432,-2.0432,-2.0432,-2.0432,-2.0432,-2.0432,-2.0177,-2.0196,-2.0207,-2.0233,-2.0247,-2.0267,-2.0278,-2.0293,-2.0308,-2.0333,-2.0349,-2.0363,-2.0382,-2.0405,-2.0423,-2.0429,-2.0436,-2.0434,-2.0441,-2.0438,-2.0439,-2.0439,-2.0436,-2.0435,-2.0435,-2.0442,-2.0442,-2.0442]},{"header":{"parameterUnit":"m.s-1","parameterCategory":1,"la1":30.2991,"la2":30.254,"lo1":-89.0895,"lo2":-89.0444,"dy":0.0017,"dx":0.0017,"nx":28,"ny":28,"refTime":"2025-11-20T09:00:00:Z","depth":0,"parameterNumber":3,"parameterNumberName":"V-component_of_WINDS"},"data":[0,0,0,0,0,0,0,0,0,0,0,0,0,0,0,0,0,0,0,0,0,0,0,0,0,0,0,0,0,0,0,0,0,0,0,0,0,0,0,0,0,0,0,0,0,0,0,0,0,0,0,0,0,0,0,0,0,0,3.6926,3.6927,0,3.7,3.7001,3.7002,3.7,3.6999,3.6998,3.6997,3.7072,3.7075,3.7078,0,0,0,0,0,0,0,0,0,0,0,0,0,3.6785,3.6788,3.6926,3.6927,3.6928,3.7,3.7001,3.7002,3.7001,3.6999,3.6998,3.6997,3.7072,3.7075,3.7078,0,0,0,0,0,0,0,0,0,0,0,0,0,3.6852,3.6789,3.6926,3.6936,3.6938,3.7,3.7001,3.7003,3.7001,3.6999,3.6998,3.6996,3.707,3.7075,3.7079,3.7136,0,0,3.7092,3.7094,0,0,0,0,0,0,0,0,3.6848,3.6857,3.6934,3.6935,3.6937,3.699,3.6979,3.7047,3.7001,3.6977,3.6997,3.6996,3.7046,3.7052,3.707,3.714,3.7143,3.7093,3.7095,3.7097,3.7099,0,0,0,0,0,0,0,3.6843,3.6854,3.6956,3.6935,3.6937,3.6937,3.6945,3.6992,3.7019,3.6979,3.6979,3.6988,3.7047,3.7065,3.7071,3.7144,3.7093,3.7097,3.7099,3.7101,3.7269,3.7271,0,0,0,0,0,0,3.6836,3.685,3.6953,3.6958,3.6888,3.6941,3.695,3.6974,3.7018,3.7024,3.6989,3.6987,3.7059,3.7066,3.7074,3.7147,3.7097,3.7101,3.7104,3.7267,3.7269,3.7271,0,0,0,0,0,0,3.6833,3.6846,3.695,3.6904,3.6917,3.6945,3.6973,3.6977,3.6995,3.7026,3.7031,3.7003,3.7058,3.7068,3.7122,3.7149,3.7103,3.7107,3.7265,3.7268,3.727,3.7291,0,0,0,0,0,0,3.6829,3.6845,3.6866,3.6904,3.692,3.6996,3.6974,3.6979,3.7003,3.7001,3.704,3.7045,3.7057,3.7115,3.7126,3.7154,3.7111,3.7263,3.7266,3.727,3.7288,3.7294,3.7299,0,0,0,0,0,3.6824,3.6868,3.6867,3.6879,3.6947,3.6998,3.7007,3.702,3.7005,3.7027,3.7048,3.7044,3.7144,3.7121,3.7133,3.7163,3.7261,3.7265,3.7269,3.7285,3.7293,3.7299,0,0,0,0,0,0,3.683,3.6873,3.6872,3.6929,3.696,3.6997,3.7026,3.7026,3.7062,3.7059,3.7073,3.7082,3.7137,3.7155,3.7128,3.7223,3.7201,3.7208,3.7209,3.7216,3.7222,3.7217,3.7114,0,0,0,0,0,3.6839,3.6876,3.6911,3.6958,3.6974,3.6997,3.702,3.7028,3.706,3.7073,3.7097,3.7128,3.7168,3.7193,3.723,3.729,3.7301,3.7317,3.7323,3.7328,3.7334,3.7371,3.738,3.7285,3.7285,3.7285,0,0,3.6855,3.6883,3.6906,3.696,3.6985,3.7025,3.7008,3.705,3.708,3.7079,3.7132,3.7151,3.7188,3.7246,3.7273,3.7263,3.7362,3.7333,3.7336,3.734,3.7376,3.7385,3.7393,3.7288,3.7287,3.7287,0,0,3.6907,3.6931,3.6974,3.7,3.7039,3.7055,3.7065,3.7103,3.7116,3.717,3.7172,3.7208,3.7273,3.7301,3.7323,3.7389,3.7388,3.74,3.743,3.7466,3.7474,3.7481,3.7507,3.7516,3.7406,3.7406,3.7406,0,3.6923,3.6983,3.6996,3.704,3.7065,3.7067,3.7113,3.7137,3.7185,3.7203,3.7191,3.7276,3.7301,3.7368,3.7384,3.7401,3.7415,3.7396,3.7472,3.7479,3.7485,3.7511,3.752,3.7408,3.7407,3.7407,3.7407,0,3.7002,3.7044,3.7075,3.7123,3.7152,3.7195,3.7217,3.7244,3.725,3.7268,3.7325,3.7355,3.74,3.7416,3.7421,3.7485,3.7478,3.7468,3.7447,3.7495,3.752,3.7529,3.741,3.7409,3.7409,3.7408,0,0,3.7059,3.7117,3.7128,3.7152,3.7195,3.7228,3.7273,3.7319,3.7343,3.7377,3.7417,3.7474,3.7467,3.7493,3.7502,3.7533,3.7587,3.7521,3.7522,3.7534,3.7663,3.7671,3.7682,3.7587,3.7589,3.759,3.7661,0,3.7117,3.7198,3.7213,3.7283,3.7324,3.7328,3.7368,3.74,3.7419,3.7456,3.7476,3.7518,3.7504,3.752,3.7551,3.7574,3.7614,3.7569,3.7626,3.7628,3.7618,3.7694,3.7702,3.7767,3.767,3.7672,3.7673,0,3.7195,3.7233,3.7309,3.7351,3.7368,3.7404,3.7448,3.7483,3.7521,3.7532,3.7563,3.7569,3.7618,3.7594,3.7663,3.7632,3.7657,3.7672,3.7674,3.7682,3.7654,3.7706,3.7788,3.7799,3.7687,3.7686,3.7685,0,3.7232,3.7302,3.7357,3.7377,3.7426,3.7452,3.7474,3.751,3.7537,3.7576,3.7595,3.7638,3.7663,3.7697,3.7716,3.7696,3.7785,3.7761,3.7798,3.7797,3.7817,3.7816,3.7907,3.7829,3.7829,3.7829,3.7828,0,3.7297,3.7344,3.7375,3.7409,3.7463,3.748,3.7532,3.7554,3.7587,3.7626,3.7632,3.7669,3.769,3.7731,3.7745,3.7802,3.7812,3.7824,3.7828,3.7825,3.7824,3.7842,3.7839,3.7831,3.7831,3.783,3.783,0,3.7348,3.737,3.7431,3.7474,3.7486,3.7524,3.7561,3.7596,3.7615,3.7665,3.7678,3.7708,3.7757,3.7778,3.7837,3.7848,3.7914,3.7913,3.7901,3.7903,3.7939,3.7937,3.8047,3.8064,3.7972,3.7973,3.7974,0,3.7388,3.7425,3.7473,3.75,3.7523,3.7566,3.7595,3.7615,3.7644,3.7692,3.7721,3.777,3.781,3.7888,3.7916,3.7962,3.7964,3.7999,3.7971,3.7968,3.7968,3.7967,3.7972,3.8005,3.8006,3.8007,3.8007,0,3.7459,3.747,3.7511,3.7558,3.7592,3.7629,3.7666,3.7688,3.7713,3.7747,3.7798,3.7829,3.7891,3.7941,3.7989,3.8013,3.8016,3.8016,3.8028,3.8026,3.8019,3.8026,3.7918,3.8014,3.8013,3.8013,3.8012,3.8012,3.7508,3.7542,3.7582,3.7629,3.7659,3.7694,3.7729,3.7754,3.7797,3.7849,3.7858,3.7913,3.7952,3.8018,3.8044,3.8088,3.8079,3.8095,3.8099,3.8103,3.8107,3.8011,3.8096,3.8096,3.8096,3.8096,3.8096,0,3.7582,3.7608,3.7651,3.7704,3.7742,3.7741,3.7782,3.7814,3.7862,3.7899,3.794,3.7999,3.8048,3.8081,3.8131,3.816,3.8163,3.8173,3.8172,3.8178,3.811,3.8097,3.817,3.817,3.817,3.817,3.817,3.817,3.7625,3.7683,3.7699,3.7774,3.78,3.7854,3.7878,3.7912,3.7942,3.8008,3.8049,3.8071,3.8107,3.816,3.8206,3.8214,3.8234,3.8244,3.8253,3.819,3.8182,3.8175,3.8162,3.8248,3.8248,3.8317,3.8318,3.8318]}]]